Location: Newark
(20.0000°S, 47.0000°E)
Time: 16:45:16
(UTC+00:00)

Hubble Space Telescope - Visible Passes

Search period start: 15 October 2019 00:00
Search period end: 25 October 2019 00:00
Orbit: 536 x 540 km, 28.5° (Epoch: 14 October)

Date Brightness Start Highest point End Pass type
(mag) Time Alt. Az. Time Alt. Az. Time Alt. Az.
15 Oct 2.3 00:31:51 29° S 00:32:02 29° S 00:35:42 10° ESE visible
16 Oct 2.3 00:22:04 32° SSE 00:22:04 32° SSE 00:25:20 10° ESE visible
17 Oct 2.6 00:12:24 30° SE 00:12:24 30° SE 00:14:58 10° E visible
17 Oct 0.8 01:48:16 10° WSW 01:52:22 63° NNW 01:56:28 10° ENE visible
18 Oct 3.1 00:02:51 23° E 00:02:51 23° E 00:04:35 10° E visible
18 Oct 1.1 01:38:13 12° W 01:41:48 47° NNW 01:45:46 10° NE visible
18 Oct 3.6 23:53:26 15° E 23:53:26 15° E 23:54:09 10° E visible
19 Oct 1.5 01:28:48 19° W 01:31:12 34° NNW 01:34:58 10° NE visible
19 Oct 3.0 16:49:30 10° NW 16:50:33 17° NW 16:50:33 17° NW visible
20 Oct 1.9 01:19:29 23° NW 01:20:36 26° NNW 01:24:03 10° NNE visible
20 Oct 1.9 16:38:47 10° NW 16:41:24 36° NW 16:41:24 36° NW visible
21 Oct 2.3 01:10:18 19° NNW 01:10:18 19° NNW 01:12:58 10° NNE visible
21 Oct 0.6 16:28:09 10° WNW 16:32:12 79° N 16:32:12 79° N visible
22 Oct 3.1 01:01:09 11° N 01:01:09 11° N 01:01:37 10° N visible
22 Oct 0.8 16:17:35 10° WNW 16:21:45 79° SSW 16:22:53 46° ESE visible
23 Oct 1.1 16:07:05 10° W 16:11:12 62° SSW 16:13:29 25° SE visible
24 Oct 1.5 15:56:38 10° W 16:00:40 50° SSW 16:03:56 15° SE visible
24 Oct 3.9 17:38:46 10° WSW 17:39:18 13° WSW 17:39:18 13° WSW visible
